User: anonymous   Login
Location: Unspecified
(0.0000°N, 0.0000°E)
Time: 23:21:29
(UTC+00:00)
Language:

DMSP B5D2-7 - Orbit

View from above orbital plane
View from above orbital plane
View from above satellite
View from above satellite

Ground track
Ground track

The orbit data is extracted from the following two-line orbital elements,

1 23233U 94057A   17345.76651166 0.00000040  00000-0  20435-4 0    01
2 23233  99.0756 355.8934 0009000 118.5220 241.4779 14.15642590    07
Epoch (UTC): 11 December 2017 18:23:46
Eccentricity: 0.0009000
inclination: 99.0756°
perigee height: 833 km
apogee height: 846 km
right ascension of ascending node: 355.8934°
argument of perigee: 118.5220°
revolutions per day: 14.15642590
mean anomaly at epoch: 241.4779°
orbit number at epoch: 0

The dashed part of the orbit path shows where the satellite is in the earth's shadow,  

DLR